Location: Riverside Cemetery
(38.3047°N, 99.7773°W)
Time: 00:54:47
(UTC+00:00)

DEBRIS - Pass Details

Date: 19 September 2020
Orbit: 302 x 15229 km, 49.4° (Epoch: 23 October)

Event Time Altitude Azimuth Distance (km) Brightness Sun altitude
Exits shadow 11:02:56 20° 321° (NW) 996 3.9 -16.7°
Maximum altitude 11:04:38 57° 36° (NE) 618 3.3 -16.3°
Drops below altitude 10° 11:10:33 10° 116° (ESE) 3,187 7.4 -15.2°
Sets 11:15:51 0° 120° (ESE) 5,627 8.7 -14.2°
